Theta_e
336 335 337 338 339 342 343 343 345 345 347 349 353 354 353 354 353 352 353 353 353 354 352 352 352 355 354 354 353 350 346 348 348 344 339 345 347 346 345 345 344 341 339
334 334 335 338 339 340 342 344 344 343 346 347 351 353 353 355 355 352 353 353 353 353 353 353 350 354 356 354 353 354 352 345 349 344 338 340 338 338 343 343 344 343 340
336 334 336 339 340 341 342 344 344 342 344 345 351 354 355 353 353 354 353 354 351 349 352 354 354 353 353 354 354 354 354 350 348 343 342 342 344 338 335 337 338 341 341
337 335 336 337 340 341 341 343 343 343 345 348 351 354 352 353 351 353 354 353 351 352 353 352 354 354 354 354 352 354 354 354 349 345 345 343 339 341 343 336 337 337 338
337 336 336 337 338 340 341 342 343 345 347 348 350 351 351 351 351 352 352 352 354 353 353 353 354 354 355 355 355 353 351 355 352 348 348 341 338 339 338 340 336 336 337
339 337 336 337 338 339 341 342 343 343 345 346 349 351 352 349 351 351 352 349 352 353 352 354 351 353 353 355 355 355 352 353 353 353 348 341 338 341 339 338 337 335 334
340 338 337 337 338 339 341 341 342 342 343 346 350 351 352 350 349 350 351 350 348 351 353 351 350 351 355 355 354 355 353 353 353 351 350 344 340 340 341 340 339 335 333
340 339 337 337 338 339 341 341 341 341 342 344 349 352 351 350 349 349 349 350 349 349 348 348 346 348 353 356 354 354 354 353 353 351 353 347 344 341 340 341 338 335 332
339 340 339 338 338 339 340 341 342 341 342 343 345 348 350 350 349 347 346 349 347 347 347 345 350 351 352 353 354 353 352 350 350 352 351 346 347 346 343 342 342 338 335
336 339 340 340 340 340 341 341 342 342 342 343 344 344 346 348 349 348 347 347 350 348 348 352 352 351 349 346 345 345 345 350 352 350 351 349 348 346 346 344 343 342 333
339 337 340 341 340 342 342 342 342 343 343 344 345 345 345 346 348 348 349 352 352 349 348 349 349 348 345 348 353 355 356 352 352 352 352 351 349 347 346 345 344 342 336
339 338 337 340 340 341 343 344 344 344 344 345 345 346 346 346 347 348 350 354 353 352 348 346 347 348 352 356 357 356 352 351 352 352 352 352 350 348 348 347 345 341 331
340 337 336 338 340 340 341 343 344 344 344 345 345 345 346 347 347 348 351 355 355 353 352 351 352 355 355 354 353 351 350 352 353 353 353 353 352 350 347 347 345 338 329
342 338 336 336 338 340 341 342 343 343 344 345 346 347 348 349 349 350 354 355 355 355 355 355 354 352 349 347 346 347 350 352 354 354 353 353 353 351 348 347 345 334 329
343 342 339 339 340 340 340 341 342 343 344 345 346 347 350 351 353 354 354 356 356 355 352 350 347 347 347 348 351 352 353 354 352 350 351 352 353 350 349 347 344 333 328
346 344 343 346 348 348 346 345 344 343 343 346 349 352 354 355 355 356 356 355 352 348 347 348 349 349 352 353 352 354 353 346 346 351 351 352 352 350 349 347 342 333 329
347 347 347 350 350 350 350 351 351 352 353 354 355 355 356 356 356 354 350 348 347 349 349 348 351 351 352 353 352 349 347 349 350 350 351 350 349 348 347 341 333 331 330
348 347 350 351 351 352 353 353 352 353 354 354 353 353 353 352 349 348 348 349 348 347 346 348 345 346 346 350 349 349 349 349 349 348 347 346 346 346 343 335 333 331 329
349 348 351 351 350 350 350 351 351 352 350 347 347 349 349 349 348 348 347 346 345 344 344 342 343 341 340 343 347 346 346 345 344 344 343 343 339 337 335 334 332 331 330
351 351 352 351 349 348 348 348 348 348 348 348 348 348 348 347 346 345 344 346 343 343 340 339 338 336 336 337 341 342 342 342 341 342 343 341 336 332 328 325 326 328 328
351 353 352 350 348 348 348 346 347 347 349 349 349 347 345 343 342 342 345 342 341 340 337 337 336 335 334 333 335 334 337 338 339 341 341 340 335 327 324 322 324 326 327
350 352 350 348 347 347 347 343 343 345 347 347 345 340 338 339 338 337 335 336 337 338 336 336 334 332 329 330 330 331 332 333 337 338 340 339 333 324 322 326 325 325 326
350 349 349 345 346 346 345 341 341 344 345 343 340 336 337 336 333 330 330 331 331 331 331 331 330 325 324 326 328 329 330 330 333 335 338 339 329 324 328 330 326 323 324
348 348 345 342 341 342 342 342 341 343 341 340 338 334 335 332 329 328 327 326 327 327 326 325 323 322 322 322 324 327 329 329 330 335 336 338 330 326 332 331 328 321 319
339 341 340 340 337 334 338 339 341 342 339 338 336 333 333 329 328 327 326 326 326 324 322 320 319 317 316 318 322 326 330 329 330 333 334 333 333 328 330 330 329 327 320
334 334 333 332 331 331 331 331 334 338 337 335 335 333 330 327 326 324 323 322 321 320 319 317 316 314 314 319 322 327 329 330 331 332 332 332 332 331 330 329 330 329 327
Wind_Speed
18 23 29 31 31 31 31 30 28 23 22 17 13 9 9 8 11 10 8 8 8 9 7 6 5 5 4 7 7 9 9 7 9 7 6 10 7 5 2 2 5 8 8
7 12 20 25 32 33 33 31 28 23 24 20 15 8 7 5 6 8 7 8 9 11 9 7 6 6 7 8 7 9 10 9 7 4 2 2 2 3 5 1 1 5 12
11 8 15 25 28 31 34 34 29 26 24 20 15 11 7 6 6 5 7 8 10 9 11 10 8 7 8 8 9 10 9 10 6 3 2 1 2 2 3 7 5 5 9
11 10 14 18 26 34 35 34 29 27 24 21 18 14 12 7 3 5 7 11 13 15 12 11 11 11 11 10 10 12 13 13 9 5 5 6 4 2 2 4 7 7 6
14 13 16 26 33 31 36 35 31 29 26 23 20 17 14 13 9 6 7 9 12 15 12 11 14 18 18 17 14 12 12 15 13 10 10 8 3 2 3 2 3 6 6
16 14 24 22 24 27 32 35 34 31 29 25 24 22 19 17 14 12 12 11 8 9 12 12 13 18 23 22 18 16 16 17 17 16 15 7 7 4 3 1 3 6 7
16 14 13 19 23 29 31 33 32 33 31 28 27 26 24 20 20 18 14 14 12 11 11 11 12 14 14 16 16 18 19 19 19 19 14 6 11 15 10 5 6 7 6
15 17 16 24 25 27 30 32 32 34 32 31 29 28 26 24 22 21 19 16 14 14 14 15 16 16 11 12 16 19 20 19 20 18 15 12 12 18 19 12 9 2 5
15 17 17 24 24 25 31 35 35 34 34 32 33 31 30 28 26 23 22 21 18 18 18 15 10 8 8 10 13 17 20 21 22 20 12 18 24 20 23 24 21 9 3
12 12 12 21 25 30 35 33 35 36 35 33 33 33 31 29 27 23 21 19 16 15 13 9 9 11 13 16 19 21 22 21 20 18 24 25 19 20 22 26 25 17 9
12 12 13 23 26 27 33 37 35 35 35 34 33 32 30 29 26 24 21 18 16 15 15 14 14 15 16 15 18 21 23 24 25 21 20 23 16 21 22 23 22 12 8
11 9 9 18 21 27 27 34 34 34 36 33 31 31 29 29 27 25 21 17 16 14 13 12 13 14 15 16 18 20 19 20 21 21 20 18 19 20 23 17 20 10 10
8 7 8 8 19 23 26 31 34 37 36 30 28 28 29 27 27 24 20 16 14 13 11 12 13 15 15 15 16 19 22 22 22 22 22 22 15 19 14 11 17 10 12
8 7 7 8 18 25 29 31 33 36 34 28 25 26 28 27 24 21 17 15 12 12 13 12 13 13 14 17 20 21 22 23 22 20 20 18 15 16 14 14 15 12 14
9 9 8 8 13 20 27 30 32 33 31 28 27 27 25 22 20 19 16 13 11 9 7 9 11 15 18 20 20 20 20 19 18 18 17 15 11 10 13 11 16 16 17
8 8 8 9 11 19 24 25 25 28 28 27 25 21 18 18 21 18 15 13 7 5 6 8 11 15 16 16 15 17 14 13 15 15 13 9 8 8 6 11 15 16 22
11 12 13 11 16 21 25 25 23 21 22 22 18 16 18 20 19 16 12 9 6 2 2 6 9 10 11 12 9 8 10 12 13 13 11 7 4 3 10 12 13 13 17
7 9 9 14 19 25 25 24 21 20 20 18 18 19 20 20 17 15 13 11 7 4 4 7 8 8 12 8 8 8 11 12 12 12 9 5 1 6 11 13 13 13 14
3 4 10 21 21 27 27 26 24 23 24 24 23 23 23 22 20 18 15 12 10 9 10 10 10 13 16 15 10 10 12 12 14 15 13 5 2 6 7 12 13 11 10
6 10 13 11 23 26 30 28 25 25 24 25 25 23 23 22 20 17 15 15 12 12 12 11 12 15 17 17 13 12 12 14 15 13 11 6 1 7 6 8 9 10 7
11 16 16 15 15 25 30 24 25 23 25 25 24 22 21 20 19 19 18 17 15 14 13 11 11 12 15 16 15 15 13 13 11 12 12 6 2 5 6 4 8 6 10
6 14 19 20 22 26 27 23 22 26 27 26 24 21 20 21 21 20 18 17 16 17 14 11 9 9 12 14 15 16 14 10 7 7 7 5 4 9 9 8 8 9 12
4 8 11 13 25 29 28 22 26 30 31 29 27 23 21 21 19 19 19 18 15 16 13 9 9 9 12 13 12 13 15 14 6 6 2 3 9 10 8 7 5 10 11
8 14 13 12 15 26 29 30 32 31 31 31 28 25 25 22 19 18 17 18 17 16 13 10 8 8 10 13 14 16 14 15 9 3 3 5 10 12 8 8 10 9 9
2 10 15 16 14 16 25 29 31 29 26 28 28 25 24 23 21 18 14 13 12 10 11 10 10 10 12 13 14 15 12 13 11 6 4 2 10 14 14 12 13 10 11
7 11 12 14 12 10 15 16 18 29 28 24 24 22 22 20 20 20 20 17 16 14 14 12 10 11 10 8 8 8 8 9 9 9 8 5 1 8 15 17 15 17 19
Wind_Direction
221 217 213 212 212 213 212 212 209 214 210 209 210 222 233 266 261 266 270 255 254 246 256 237 273 266 318 338 342 341 347 337 342 317 320 30 38 50 51 248 210 213 220
193 196 199 200 208 211 210 210 214 210 200 206 213 215 228 256 279 270 250 238 258 253 252 261 297 304 310 329 316 324 338 322 329 333 331 331 332 17 51 -0 248 258 238
201 187 182 193 201 206 209 211 215 210 206 206 206 212 227 254 289 242 236 251 262 262 260 262 273 281 294 306 305 299 302 290 293 295 252 322 261 323 6 44 29 285 262
202 193 188 191 199 208 211 213 215 207 206 208 209 212 223 241 280 257 249 260 267 266 261 264 271 275 268 273 280 280 282 280 278 264 260 239 227 175 17 27 300 300 277
193 190 197 201 206 207 212 214 217 216 214 217 220 222 229 242 251 256 258 285 289 249 260 273 278 276 269 259 260 269 281 277 273 255 250 238 234 111 128 276 271 300 271
198 201 205 199 205 208 214 217 217 220 221 225 225 228 231 237 242 248 258 276 298 259 265 269 286 291 274 263 267 283 288 286 280 271 252 236 27 349 254 224 281 255 259
194 197 184 192 198 204 212 218 219 223 222 226 227 230 235 242 246 250 256 265 268 270 272 270 295 306 296 272 270 282 292 290 286 292 265 301 281 266 253 191 252 244 243
194 195 194 196 199 199 206 213 219 225 226 226 231 233 236 244 250 252 255 257 265 274 281 288 295 294 286 277 275 282 286 286 286 289 261 254 261 269 248 211 212 254 225
191 197 194 196 197 194 203 212 218 224 230 231 232 236 239 243 247 252 256 261 270 275 284 290 274 296 305 292 285 283 286 288 290 295 256 254 257 246 247 235 234 203 205
192 195 193 195 197 198 207 212 218 224 229 233 236 239 242 245 249 252 255 259 272 280 277 285 268 282 294 293 289 287 289 293 291 291 268 251 249 247 252 247 242 243 218
192 189 192 198 198 195 202 214 222 224 229 234 238 240 244 246 248 250 255 262 269 274 274 280 282 286 291 293 293 296 303 304 301 292 290 259 236 241 245 257 242 243 212
198 183 183 188 187 194 200 207 216 220 230 235 239 243 246 247 247 248 251 255 263 271 277 278 282 285 286 292 295 301 312 312 312 309 301 281 241 246 244 256 240 226 202
200 173 176 180 186 188 198 208 216 223 228 230 236 242 245 245 244 243 244 249 259 269 273 274 278 288 291 296 302 306 308 307 311 311 305 305 268 246 243 250 231 206 193
191 172 180 188 185 188 197 208 216 223 226 228 233 239 242 243 240 234 230 240 247 257 266 281 290 295 302 305 306 306 308 310 312 308 305 300 277 259 243 229 199 187 179
176 184 181 188 184 189 201 211 219 224 228 228 234 242 244 240 230 218 215 226 236 243 276 297 300 305 309 310 316 311 308 310 309 311 310 298 279 260 253 218 185 182 171
201 179 175 173 175 184 194 203 209 214 217 219 223 227 226 217 204 197 193 210 213 251 288 301 314 319 325 318 305 306 317 327 324 327 324 309 283 269 238 189 189 193 180
194 185 185 179 177 178 186 187 190 191 195 202 204 202 196 186 178 180 164 175 180 188 347 348 349 358 344 347 346 353 345 337 331 332 325 322 307 217 175 176 186 191 201
208 182 179 174 173 177 176 172 171 170 171 171 168 169 166 158 157 160 162 156 149 107 56 33 30 36 25 2 13 10 5 2 7 5 357 339 318 167 166 173 180 183 197
219 283 240 173 165 166 166 160 156 157 156 154 157 160 160 158 158 156 153 144 130 110 85 64 63 57 44 42 34 37 52 31 18 14 7 2 137 153 167 161 166 166 191
201 161 173 184 158 164 162 153 149 152 154 160 161 161 162 158 156 153 149 141 127 115 102 86 70 64 53 44 45 47 43 33 27 11 1 16 290 166 160 160 154 142 141
208 161 165 174 176 163 164 152 156 162 165 161 158 159 159 156 153 145 143 141 131 124 112 98 79 64 52 45 37 38 36 27 24 22 2 344 224 165 135 132 128 125 147
180 178 168 170 173 171 167 159 164 170 163 159 155 153 153 150 147 143 137 136 135 129 127 119 90 57 43 35 32 31 30 16 23 16 7 9 130 146 140 150 126 145 153
175 197 190 174 172 178 179 165 168 165 161 156 153 149 151 146 143 138 135 131 131 122 116 107 80 46 26 17 17 23 24 13 5 0 349 135 152 155 156 164 156 167 168
164 172 172 174 199 180 179 178 169 170 162 153 151 151 150 142 136 128 123 118 119 116 107 94 75 43 21 12 10 9 13 3 5 17 11 186 181 182 181 196 189 201 185
130 160 165 186 192 183 174 175 169 169 162 154 151 150 147 140 129 121 108 108 104 104 110 100 79 38 23 17 6 360 12 10 9 13 45 80 191 201 206 200 194 201 202
121 109 112 112 114 129 130 149 169 168 163 158 154 153 147 136 128 122 109 101 97 94 88 81 61 50 29 16 12 20 32 11 17 48 29 23 305 223 219 211 202 203 209